Terminal Aerodrome Forecast
Issued by NWS

Home | Current Version | Previous Version | Text Only | Print | Product List | Glossary On
Versions: 1 2 3 4 5 6 7 8 9 10 11 12
000
FTUS46 KMTR 271100
TAFOAK
TAF
KOAK 271121Z 2712/2818 VRB03KT P6SM SCT250
     FM272000 28007KT P6SM FEW200
     FM280300 VRB03KT P6SM SKC=

USA.gov is the U.S. government's official web portal to all federal, state and local government web resources and services.